Wind_Speed
81 82 82 82 82 82 82 82 83 83 84 84 84 85 86 87 88 88 89 89 90 91 93 94 94 93 93 94 94 94 94 94 94 95 95 95 96 96 96 96 97 98 95 93 93 93 92 92 91 89 87 86 86 87 88 89 89 91 92 92 93 93 94
80 80 81 81 81 82 82 83 83 84 84 85 85 86 87 88 89 90 91 91 92 93 94 96 96 95 95 96 97 97 97 97 97 97 97 97 97 98 98 98 99 99 98 95 94 94 93 94 94 91 89 88 88 87 88 89 89 90 91 92 93 93 94
80 80 80 80 81 81 82 82 83 84 84 85 86 86 87 88 90 91 91 92 93 94 96 97 98 98 97 98 100 100 100 100 100 100 100 99 100 100 100 100 101 101 101 98 96 96 95 95 96 93 91 90 90 89 90 90 89 90 91 92 92 93 93
78 78 79 79 80 80 81 82 82 83 84 85 85 86 87 88 89 90 91 92 93 94 96 97 98 98 99 100 102 102 102 102 102 103 103 103 103 103 102 102 103 103 103 101 99 98 96 96 97 95 93 92 92 91 91 91 91 91 92 92 92 93 93
76 77 77 77 78 78 79 80 80 81 82 83 84 85 85 86 87 88 89 90 91 92 93 95 96 96 97 99 101 102 102 102 103 104 105 105 104 104 104 103 104 104 104 103 102 99 97 97 98 97 95 94 94 93 93 93 92 92 92 93 93 93 93
76 77 77 77 78 78 79 80 80 81 81 82 83 84 84 85 86 86 87 88 88 90 91 92 93 93 95 96 98 99 99 100 101 102 103 104 103 102 103 103 103 104 104 104 103 101 98 98 99 98 97 96 96 95 94 94 94 93 93 93 94 93 93
77 78 78 79 79 79 80 80 81 81 82 83 84 84 85 85 86 87 87 87 88 89 89 90 91 92 92 94 95 96 97 98 99 100 101 101 101 101 101 102 102 103 104 105 105 102 100 99 100 100 100 98 98 96 95 94 94 94 93 93 94 94 94
79 79 79 80 80 80 81 82 82 83 84 85 85 86 87 88 88 89 89 89 89 90 91 91 92 93 93 94 96 97 98 98 99 100 101 101 102 102 102 102 102 104 105 106 106 104 102 101 101 102 102 101 100 98 95 94 95 95 94 94 95 95 95
80 80 81 81 82 82 83 84 85 86 87 88 89 90 91 91 92 92 92 92 92 92 93 94 95 95 96 97 99 100 101 101 102 103 103 103 103 105 105 104 104 105 106 107 108 106 104 103 103 104 104 103 101 97 94 94 96 96 96 96 96 96 97
82 83 83 84 84 85 86 87 88 90 91 92 93 94 95 95 95 95 95 95 95 95 96 97 98 98 99 100 102 103 104 104 105 106 106 106 106 107 108 107 107 107 108 108 109 108 106 105 105 105 105 103 101 97 96 96 97 97 96 96 95 94 94
86 86 87 88 88 89 90 90 92 94 95 95 97 98 99 99 98 98 98 98 99 99 99 99 100 101 101 102 104 105 106 106 107 107 107 107 108 109 110 110 109 108 108 109 109 108 107 106 106 106 104 102 100 98 97 97 97 96 94 92 90 88 87
89 89 90 91 92 92 92 93 95 96 97 98 98 99 101 101 101 101 101 101 101 102 102 102 102 102 103 104 105 106 107 107 108 108 108 108 109 109 110 111 110 109 108 108 108 108 107 106 106 104 102 99 98 96 95 93 93 91 87 84 82 79 78
91 91 92 93 93 94 94 94 95 96 97 98 98 99 100 101 102 101 101 101 101 102 102 102 102 102 102 102 103 104 104 104 104 104 105 105 105 105 106 106 106 105 104 103 103 104 103 102 101 99 95 92 91 89 88 86 84 81 77 75 73 72 70
90 90 91 91 92 92 91 91 91 92 93 93 93 94 94 95 95 94 94 94 93 93 93 93 93 93 92 92 92 92 92 93 93 93 93 93 93 93 93 93 93 93 93 92 93 93 93 92 91 87 84 81 80 78 77 75 73 71 70 69 68 68 68
87 86 86 86 86 86 85 84 85 85 86 86 85 85 85 85 84 84 84 83 83 82 81 80 79 79 78 77 77 78 78 79 79 80 80 80 80 80 80 80 79 78 78 79 79 79 78 78 76 74 71 70 69 68 67 66 65 66 66 66 66 66 66
82 81 81 80 80 80 79 77 78 79 78 78 78 78 78 77 76 75 74 73 72 71 69 68 67 66 65 65 65 65 65 66 66 67 68 68 68 68 69 69 69 67 67 68 68 67 66 64 62 61 60 60 60 60 61 61 62 63 63 63 63 63 62
77 76 75 75 74 75 74 73 72 73 72 71 71 71 70 69 67 66 64 62 61 60 58 57 55 55 54 53 52 52 53 54 55 56 57 57 56 57 59 60 60 59 59 59 59 58 56 54 53 53 54 55 56 57 58 59 58 58 58 59 59 58 57
71 70 69 69 69 70 70 68 67 66 65 64 63 62 61 60 58 56 54 51 49 49 48 47 45 45 44 43 43 44 46 47 48 49 49 49 49 50 52 53 53 52 52 52 52 51 50 50 50 51 53 54 54 55 55 55 54 54 55 55 55 54 54
66 64 63 63 63 64 64 63 61 59 58 56 55 54 52 51 50 47 44 41 39 39 39 38 37 37 37 36 37 39 41 41 42 43 43 43 44 45 45 46 46 46 46 47 47 46 46 46 48 49 51 52 52 52 52 52 51 52 52 52 52 52 53
61 59 57 56 57 58 58 57 54 52 51 49 47 45 44 43 42 39 36 33 32 32 32 32 31 31 31 32 33 35 36 36 37 37 38 38 39 39 39 40 40 40 41 42 43 42 42 43 45 46 47 47 47 48 48 48 49 49 49 49 50 51 52
55 53 50 50 52 53 52 51 49 47 45 43 40 38 37 37 35 32 29 26 25 26 26 26 27 26 27 28 29 29 30 31 32 33 33 33 33 33 34 35 36 36 38 39 39 39 40 42 43 44 44 44 45 45 45 46 46 47 47 49 50 50 50
49 47 45 46 48 49 48 46 44 42 39 37 34 32 31 31 29 26 23 20 20 21 22 22 22 22 23 23 23 24 25 27 29 30 30 29 29 30 31 32 33 34 36 36 37 38 39 40 40 41 41 42 43 44 44 44 45 46 47 48 49 49 49
44 43 42 43 44 45 44 42 39 36 33 31 29 27 26 25 23 21 18 16 16 17 18 18 18 18 18 19 20 21 23 26 27 26 25 26 28 29 30 31 31 32 33 34 36 36 37 37 38 38 39 40 41 42 42 43 44 45 47 47 48 49 49
40 40 40 41 41 41 41 38 34 30 28 26 24 22 21 21 19 16 14 12 12 13 14 14 14 14 16 18 20 21 23 24 24 23 23 25 27 28 28 29 30 31 32 33 34 34 35 35 36 37 37 39 40 41 42 42 43 45 46 47 48 48 49
38 38 39 39 38 37 36 34 28 24 23 22 20 19 18 17 15 12 11 9 10 11 11 10 11 12 14 16 18 20 21 21 20 20 22 24 25 26 27 28 29 30 31 31 32 33 33 34 35 36 37 38 40 41 41 41 42 43 44 45 45 46 48
35 36 36 36 35 33 31 29 24 21 20 19 18 16 15 14 11 9 8 8 9 9 9 8 9 11 13 15 16 17 18 18 18 19 20 22 24 25 26 27 28 29 30 30 31 32 32 34 35 36 37 38 40 40 40 39 40 41 41 42 42 44 47
33 33 32 31 29 28 27 25 21 19 18 16 15 14 12 11 9 7 7 8 8 7 7 7 9 11 12 14 15 16 16 17 17 18 19 21 23 24 25 26 28 28 28 29 30 31 32 33 34 34 36 37 37 37 37 37 38 39 39 40 41 44 45
29 30 28 26 23 21 21 21 19 17 16 14 12 11 10 8 6 6 6 7 7 7 7 8 9 11 12 12 13 14 15 16 17 18 19 21 22 23 23 24 26 26 27 28 29 29 30 30 31 33 34 34 34 35 36 37 37 37 38 40 42 43 44
30 29 24 21 18 14 14 16 16 15 14 12 9 8 7 5 4 5 6 6 7 7 8 9 10 11 11 12 12 13 14 16 17 17 19 21 22 23 23 24 25 25 25 26 27 28 28 29 30 31 32 31 32 34 35 35 35 36 38 39 41 42 42
33 30 23 19 16 12 9 10 12 13 12 10 6 4 4 3 4 5 6 6 7 8 8 9 10 11 12 12 13 14 15 16 17 18 20 22 23 24 23 23 25 25 25 25 26 26 26 27 28 29 30 30 31 33 34 34 35 37 38 40 40 41 40
32 29 23 17 14 12 9 7 7 9 10 7 4 3 2 2 4 5 5 5 6 7 7 8 9 10 11 11 12 14 16 17 19 20 21 23 24 24 23 23 24 25 25 25 26 25 25 25 26 27 29 30 32 33 34 34 36 37 38 39 39 39 38
31 26 23 18 13 11 10 7 5 6 7 5 4 3 1 2 4 5 5 5 5 5 5 6 7 8 9 10 11 12 14 16 18 20 22 23 24 24 24 24 24 24 24 25 24 24 24 25 25 27 28 30 31 33 33 34 36 37 37 38 37 36 36
34 27 22 19 14 9 8 7 5 6 7 5 4 3 2 1 3 4 4 4 4 4 4 6 7 8 9 10 10 11 13 14 16 19 21 23 24 24 23 24 24 24 24 24 23 23 24 25 26 27 28 29 30 32 33 34 35 36 37 36 35 35 36
36 29 22 18 14 9 7 6 5 6 8 6 4 4 4 2 2 3 2 3 4 5 6 7 8 9 10 11 11 12 13 13 15 17 19 21 22 23 23 24 23 24 24 23 22 22 23 25 26 26 27 28 29 31 32 34 35 36 36 35 34 35 36
30 27 21 17 14 10 8 6 5 6 7 6 5 5 6 4 2 2 2 3 5 7 8 8 9 10 11 12 12 13 13 14 14 16 18 20 21 22 23 23 23 23 23 23 22 22 23 24 26 26 27 28 29 31 32 34 35 35 34 34 34 35 36
26 23 18 14 13 11 8 7 6 6 7 6 5 5 6 6 4 3 4 5 6 7 8 8 9 10 12 13 14 14 15 16 16 16 17 19 20 21 22 22 23 23 23 23 23 22 22 24 26 27 28 29 30 31 33 33 34 33 33 33 34 35 35
Wind_Direction
280 279 279 278 277 276 275 274 273 272 271 270 269 268 267 266 264 263 262 261 261 261 261 261 260 259 260 260 260 260 260 261 262 262 262 263 263 264 264 264 265 265 264 264 264 265 266 266 266 265 264 263 262 261 261 260 260 259 258 257 256 254 253
281 280 279 278 277 277 276 275 274 273 272 271 270 269 268 267 266 265 264 263 262 262 263 263 262 262 261 262 262 261 261 261 261 262 263 263 263 264 264 265 265 265 265 264 264 265 265 266 266 265 264 263 262 261 261 261 260 260 259 258 257 255 254
282 281 281 280 279 278 277 276 275 274 273 272 271 270 269 268 267 266 265 265 264 264 264 264 264 263 263 263 263 263 262 262 262 262 262 263 263 264 264 264 265 265 265 265 264 264 264 264 265 264 263 262 261 262 262 262 261 260 260 258 257 256 255
283 282 282 281 280 279 278 277 276 276 275 274 273 272 271 270 269 268 267 266 266 265 265 265 264 264 264 264 264 264 264 264 263 263 263 263 263 263 264 264 264 265 265 264 264 263 263 263 264 264 263 262 261 262 263 263 262 261 260 259 258 257 256
283 283 282 281 281 280 279 278 278 277 276 275 275 274 273 272 271 270 270 269 268 267 266 266 266 265 265 265 265 265 264 264 264 264 264 263 263 263 263 264 264 264 264 263 263 262 262 262 263 263 262 262 262 262 263 263 262 261 261 260 259 258 257
284 283 282 281 281 280 279 279 278 277 276 275 275 274 273 272 272 271 270 270 269 268 268 267 267 266 266 265 265 265 265 265 264 264 264 263 263 263 263 263 263 263 263 263 262 262 261 262 262 263 262 262 262 263 263 263 263 262 261 260 259 258 257
284 283 283 282 281 281 280 279 278 278 277 276 275 274 273 272 271 270 270 269 269 268 268 267 267 267 266 266 265 265 264 264 264 263 263 263 263 262 261 261 261 262 262 262 262 262 261 262 262 263 263 262 262 262 262 263 263 262 261 260 260 259 258
284 284 283 283 282 281 281 280 279 278 277 277 276 275 274 272 271 271 270 269 269 268 268 267 267 266 266 265 265 264 264 263 263 263 262 262 262 262 261 260 261 261 261 262 262 262 262 262 262 263 263 263 262 262 263 263 262 262 261 260 259 259 258
285 284 284 283 283 282 281 281 280 279 278 277 276 275 274 273 272 272 271 270 269 269 268 268 267 266 266 265 265 264 264 263 263 263 262 262 262 262 261 261 260 260 261 261 262 262 262 262 262 262 262 263 262 262 262 261 261 260 260 260 259 259 258
286 285 285 284 283 283 282 282 281 280 280 279 278 277 276 275 274 273 272 271 270 269 269 268 267 267 266 266 265 265 264 264 263 263 262 262 262 262 262 261 260 260 261 261 261 262 262 261 261 261 262 262 262 261 260 260 259 259 259 258 258 257 257
287 287 286 285 285 284 284 283 283 282 281 280 280 279 278 277 276 275 274 273 272 270 269 268 267 267 266 266 266 265 265 264 264 263 263 262 262 262 262 261 261 260 260 260 261 261 261 261 260 260 260 261 260 260 259 258 258 257 257 256 255 254 254
288 287 287 287 286 285 285 284 284 283 282 282 281 281 280 279 278 277 276 275 273 272 271 269 268 267 266 266 266 265 265 264 264 263 263 262 262 261 261 261 260 260 259 259 259 259 259 259 259 259 259 259 258 257 257 256 255 255 254 252 250 248 247
288 288 288 287 287 286 286 285 285 284 283 283 283 282 281 281 280 279 277 276 275 274 272 271 269 268 267 266 265 265 265 264 263 263 262 262 261 261 260 260 260 259 259 258 258 258 258 258 257 257 256 256 255 254 253 252 252 250 248 245 243 242 241
289 289 288 288 288 287 286 286 285 285 284 284 284 283 282 281 281 280 279 278 276 275 274 272 271 269 268 266 265 265 264 263 263 262 261 261 260 259 259 259 258 258 257 256 256 255 255 255 254 253 252 251 249 249 248 247 245 243 240 238 238 237 237
290 290 289 289 289 288 287 287 286 286 285 285 284 284 283 282 282 281 280 279 278 276 275 273 272 270 268 267 265 264 263 262 261 260 259 258 258 257 255 255 254 254 253 253 252 251 250 250 250 249 247 245 243 243 242 240 237 235 234 234 234 234 235
292 291 290 290 289 289 288 288 287 287 286 286 285 285 284 284 283 282 281 280 279 277 275 274 272 270 268 266 264 262 261 259 258 257 256 255 254 252 251 250 249 248 248 247 247 246 245 244 244 242 240 238 237 236 235 233 232 232 232 233 234 234 234
293 292 292 291 290 290 289 288 288 288 288 287 287 286 286 285 284 282 281 279 278 277 276 274 271 269 266 263 261 258 256 254 253 252 251 250 249 247 246 245 244 242 242 242 242 241 239 236 234 233 232 232 232 231 231 231 231 232 233 233 233 233 233
293 293 293 293 292 291 290 289 289 289 289 289 288 287 286 286 284 282 281 280 279 277 275 273 269 266 262 258 255 251 249 248 247 247 246 245 244 242 241 241 240 238 236 236 236 234 231 228 226 226 226 227 227 228 229 230 230 231 232 232 231 231 231
296 295 295 295 293 292 291 291 291 292 292 291 289 288 288 286 285 283 283 282 279 276 273 270 266 262 258 252 246 242 241 241 241 241 241 240 239 238 238 237 236 232 230 230 229 228 226 224 223 224 225 225 226 227 228 228 229 229 229 229 228 228 228
298 298 297 296 295 294 294 294 295 295 294 292 291 290 290 287 286 285 285 283 279 274 270 266 261 256 251 245 239 235 235 236 236 237 236 235 234 234 233 231 229 226 224 224 224 223 222 221 221 223 225 226 227 227 227 227 227 227 226 226 225 225 226
300 300 300 299 297 296 297 298 298 297 296 294 293 293 291 288 287 288 286 283 277 271 265 261 256 250 244 240 235 232 231 231 231 231 230 228 226 225 224 223 221 219 218 219 219 219 219 219 220 221 223 224 225 226 225 225 225 224 224 224 223 224 226
303 303 303 301 299 299 300 300 300 299 298 296 295 294 292 290 289 289 287 280 272 267 261 255 251 245 240 235 230 226 224 224 225 225 223 219 217 217 217 216 215 214 214 215 216 217 218 219 219 220 221 222 223 223 222 222 222 222 222 222 223 225 226
307 307 305 303 302 302 302 301 301 301 298 295 295 295 293 292 292 291 285 276 269 264 259 253 247 240 234 227 221 217 217 218 220 219 214 210 210 211 211 211 211 212 212 214 215 216 217 218 218 218 219 220 221 221 220 220 220 222 222 224 225 226 227
311 309 307 305 305 304 302 302 303 302 297 295 296 297 295 293 292 288 281 271 265 260 255 250 244 235 227 220 215 212 213 215 216 212 206 205 207 209 208 208 209 210 211 212 214 215 215 216 217 217 217 218 219 219 219 219 221 224 226 227 228 227 225
314 312 310 308 307 305 302 302 304 302 299 298 299 298 296 292 288 282 275 264 256 253 249 243 237 231 225 221 217 215 214 213 212 208 204 205 207 207 207 206 207 208 208 209 211 212 213 214 214 215 215 216 217 217 218 220 223 227 228 228 226 222 219
317 314 312 310 308 305 303 303 304 304 302 300 298 294 291 286 281 275 266 256 249 248 245 237 231 229 226 223 220 217 214 212 210 206 203 204 206 206 204 203 205 206 205 206 207 209 211 212 213 214 215 215 216 218 220 223 224 226 226 223 218 214 212
319 316 314 311 307 305 302 302 304 305 302 297 292 287 281 276 272 265 254 247 241 237 231 223 222 225 225 222 219 216 211 208 205 202 199 201 204 204 201 201 203 203 203 204 206 208 210 212 214 214 215 217 218 220 222 222 221 220 219 214 209 207 209
322 320 317 312 307 303 299 299 301 301 296 290 282 275 268 260 256 251 242 235 228 219 213 207 208 215 219 218 216 211 207 203 200 197 194 195 200 201 199 200 202 203 203 205 207 209 211 212 213 215 217 218 219 218 218 216 214 212 210 206 204 205 207
328 326 323 315 308 300 290 291 295 294 286 276 264 256 250 242 235 232 227 222 219 215 210 207 206 208 212 214 212 206 202 199 196 192 189 191 196 199 199 201 204 205 205 205 206 208 209 211 213 215 215 214 211 210 209 208 205 204 203 203 204 205 206
332 329 328 323 314 303 282 273 279 281 274 260 242 233 236 233 225 221 218 217 219 220 219 217 215 213 213 216 216 211 206 201 196 193 193 195 198 200 199 200 203 203 201 202 203 205 207 208 209 209 208 205 204 204 204 202 201 200 201 202 203 204 204
334 331 329 328 322 313 300 274 260 265 261 243 215 203 228 249 237 224 220 221 220 221 223 223 221 219 216 216 217 216 213 208 203 200 199 199 200 200 198 198 200 199 198 200 202 203 205 206 206 206 205 204 204 204 203 202 201 201 201 200 201 202 203
334 334 330 329 326 317 307 296 281 272 259 232 203 188 190 264 254 236 226 222 215 214 219 217 214 211 207 206 208 210 211 212 209 205 203 201 200 199 197 197 198 197 197 200 203 204 206 208 208 207 208 208 207 206 204 203 202 201 200 199 200 202 203
332 335 332 327 324 317 302 292 290 282 264 234 201 183 167 235 266 252 233 215 196 188 199 204 202 200 200 200 202 202 204 207 208 206 203 201 199 198 196 195 196 196 197 201 204 206 209 211 210 209 208 207 206 205 203 201 201 200 199 199 201 202 203
327 330 330 324 320 314 294 274 268 272 263 241 204 184 169 164 260 260 233 199 185 181 187 196 198 200 202 203 202 199 198 201 203 202 199 197 195 194 193 193 194 196 198 202 205 209 211 210 208 206 203 202 202 201 199 198 197 197 198 199 200 201 201
323 324 324 319 314 309 294 271 259 266 264 249 221 196 178 163 202 246 207 182 190 193 193 197 202 206 207 207 204 200 198 197 197 195 193 191 190 190 190 191 193 197 201 204 206 209 210 207 204 200 198 197 197 197 197 196 195 195 196 198 199 200 199
327 322 318 311 305 300 289 269 256 259 260 252 240 223 196 172 173 208 195 180 193 205 205 206 209 211 211 209 206 202 199 196 195 193 192 191 190 190 191 193 194 197 201 204 206 207 206 203 200 196 194 194 194 195 194 194 194 195 196 198 199 199 198
Height
5340 5338 5336 5335 5333 5332 5330 5329 5327 5325 5324 5325 5324 5324 5323 5323 5322 5322 5323 5324 5324 5324 5321 5321 5324 5328 5330 5328 5326 5329 5331 5332 5332 5332 5333 5333 5334 5336 5337 5338 5337 5338 5350 5359 5354 5355 5363 5362 5362 5368 5372 5374 5376 5377 5377 5379 5381 5384 5386 5390 5395 5398 5402
5326 5324 5322 5321 5319 5318 5316 5314 5313 5311 5310 5310 5310 5309 5308 5308 5307 5307 5308 5309 5311 5310 5307 5306 5309 5312 5315 5313 5310 5313 5316 5316 5317 5317 5317 5319 5319 5320 5322 5323 5322 5322 5329 5340 5341 5341 5346 5347 5346 5352 5358 5358 5361 5363 5363 5365 5369 5370 5373 5376 5380 5383 5388
5312 5310 5308 5307 5305 5303 5301 5300 5298 5297 5295 5294 5294 5293 5293 5292 5291 5292 5293 5294 5295 5296 5293 5291 5294 5297 5299 5297 5294 5296 5299 5299 5301 5302 5302 5304 5304 5304 5307 5308 5307 5306 5310 5320 5325 5325 5331 5333 5330 5336 5343 5343 5345 5348 5347 5350 5355 5357 5359 5363 5366 5369 5374
5299 5297 5295 5293 5291 5289 5287 5285 5283 5282 5280 5279 5277 5277 5277 5276 5275 5275 5276 5278 5279 5279 5278 5276 5278 5282 5283 5280 5278 5280 5283 5282 5284 5286 5285 5287 5289 5288 5290 5293 5291 5291 5293 5299 5305 5310 5316 5319 5316 5320 5327 5328 5329 5333 5334 5335 5340 5342 5344 5348 5352 5356 5360
5286 5284 5282 5280 5277 5275 5273 5270 5269 5268 5266 5264 5262 5261 5260 5260 5260 5259 5260 5261 5262 5262 5261 5260 5262 5265 5266 5263 5262 5264 5266 5266 5267 5268 5267 5268 5272 5274 5274 5276 5275 5275 5277 5280 5285 5294 5301 5302 5301 5305 5311 5312 5313 5318 5320 5320 5324 5327 5330 5333 5337 5341 5346
5274 5271 5269 5267 5264 5262 5260 5257 5255 5253 5251 5250 5247 5246 5245 5245 5244 5244 5244 5245 5245 5245 5245 5245 5246 5248 5248 5246 5246 5247 5248 5249 5249 5250 5250 5251 5255 5258 5258 5258 5259 5259 5261 5261 5266 5276 5284 5287 5288 5289 5293 5297 5299 5302 5305 5306 5308 5311 5315 5318 5321 5326 5330
5261 5258 5255 5253 5251 5248 5246 5244 5242 5239 5236 5235 5233 5231 5230 5230 5228 5228 5229 5229 5230 5230 5230 5230 5230 5231 5232 5230 5229 5229 5230 5232 5232 5232 5232 5234 5237 5240 5241 5242 5243 5244 5244 5244 5248 5257 5266 5272 5273 5273 5276 5281 5284 5285 5290 5293 5293 5296 5300 5302 5304 5309 5313
5248 5246 5243 5240 5237 5235 5232 5229 5227 5224 5221 5219 5218 5215 5214 5213 5212 5212 5213 5215 5215 5215 5214 5214 5214 5214 5215 5214 5213 5212 5212 5213 5215 5214 5215 5217 5219 5221 5223 5225 5227 5228 5228 5229 5231 5238 5248 5255 5257 5257 5259 5263 5266 5271 5278 5281 5278 5279 5283 5285 5287 5291 5294
5235 5232 5229 5226 5223 5220 5217 5215 5212 5209 5205 5202 5201 5198 5196 5196 5196 5196 5197 5198 5199 5199 5198 5197 5197 5197 5197 5196 5195 5195 5194 5195 5196 5196 5197 5201 5202 5202 5203 5208 5210 5211 5212 5214 5215 5220 5230 5236 5238 5241 5243 5244 5250 5258 5264 5264 5261 5262 5267 5268 5269 5273 5277
5220 5217 5214 5212 5209 5206 5203 5200 5196 5192 5188 5185 5182 5179 5177 5177 5178 5178 5179 5180 5181 5181 5181 5179 5179 5179 5178 5177 5176 5175 5175 5175 5177 5177 5179 5183 5184 5183 5184 5188 5192 5194 5196 5197 5198 5203 5212 5216 5220 5225 5226 5228 5235 5242 5245 5246 5245 5248 5251 5251 5252 5257 5262
5205 5202 5198 5194 5192 5190 5187 5184 5179 5173 5170 5168 5164 5160 5157 5157 5159 5160 5160 5160 5160 5160 5161 5160 5159 5159 5158 5157 5156 5155 5155 5155 5156 5158 5160 5162 5164 5165 5164 5166 5171 5176 5178 5180 5181 5186 5193 5196 5201 5207 5210 5212 5218 5223 5226 5230 5231 5232 5234 5235 5237 5243 5248
5189 5186 5181 5177 5174 5173 5170 5167 5161 5154 5151 5150 5147 5143 5138 5136 5137 5139 5139 5138 5137 5137 5137 5137 5138 5138 5138 5137 5136 5134 5134 5135 5136 5137 5139 5141 5144 5145 5144 5146 5151 5156 5160 5162 5164 5168 5173 5178 5184 5189 5193 5197 5201 5204 5208 5213 5215 5217 5220 5222 5224 5230 5236
5174 5170 5165 5160 5157 5155 5153 5149 5143 5136 5133 5131 5130 5126 5121 5116 5115 5116 5117 5116 5115 5114 5113 5114 5114 5115 5116 5116 5115 5113 5113 5114 5115 5116 5118 5120 5122 5124 5125 5127 5131 5136 5140 5144 5146 5149 5156 5162 5167 5171 5177 5182 5183 5186 5192 5198 5201 5205 5208 5210 5214 5220 5226
5159 5154 5149 5144 5139 5137 5136 5132 5125 5120 5117 5115 5112 5108 5103 5099 5097 5096 5095 5095 5093 5092 5091 5091 5091 5092 5094 5095 5094 5094 5094 5094 5095 5096 5098 5100 5102 5105 5107 5109 5113 5117 5122 5126 5129 5134 5141 5147 5150 5155 5162 5165 5168 5173 5179 5184 5189 5193 5196 5200 5204 5209 5213
5142 5139 5134 5129 5123 5120 5119 5116 5109 5104 5103 5099 5095 5091 5087 5084 5082 5080 5078 5076 5075 5073 5073 5073 5073 5073 5075 5076 5077 5077 5076 5076 5077 5079 5081 5083 5086 5089 5092 5094 5098 5103 5106 5110 5114 5121 5127 5132 5137 5142 5148 5152 5156 5162 5168 5173 5178 5182 5185 5189 5193 5198 5204
5126 5122 5118 5114 5108 5104 5103 5101 5095 5090 5089 5085 5079 5075 5071 5069 5068 5065 5063 5061 5060 5058 5057 5057 5057 5057 5059 5060 5062 5062 5062 5061 5062 5063 5066 5069 5073 5075 5077 5081 5086 5090 5093 5097 5102 5109 5116 5121 5126 5132 5137 5142 5148 5153 5158 5163 5168 5172 5177 5181 5186 5193 5199
5112 5107 5103 5099 5095 5089 5087 5087 5082 5077 5075 5071 5066 5061 5058 5056 5054 5052 5050 5049 5048 5045 5044 5045 5045 5045 5046 5047 5049 5050 5049 5049 5050 5052 5055 5058 5061 5064 5066 5071 5076 5080 5083 5088 5093 5099 5106 5112 5117 5123 5128 5133 5139 5145 5150 5154 5160 5167 5171 5176 5181 5188 5194
5099 5095 5090 5085 5081 5076 5072 5073 5071 5066 5062 5059 5054 5049 5046 5044 5042 5040 5040 5039 5038 5036 5034 5034 5034 5034 5035 5037 5038 5039 5038 5039 5040 5042 5046 5049 5052 5055 5058 5063 5068 5072 5076 5081 5086 5091 5097 5103 5109 5114 5120 5125 5131 5137 5142 5148 5155 5160 5164 5169 5176 5183 5188
5085 5084 5079 5073 5068 5063 5060 5060 5059 5054 5050 5047 5043 5040 5037 5035 5032 5032 5031 5031 5029 5028 5026 5025 5026 5026 5026 5028 5029 5029 5029 5030 5032 5035 5039 5042 5045 5048 5053 5057 5061 5066 5071 5075 5080 5086 5092 5098 5103 5108 5113 5119 5125 5131 5137 5143 5148 5153 5157 5164 5171 5177 5181
5074 5072 5069 5063 5057 5053 5050 5049 5048 5044 5041 5038 5035 5032 5029 5026 5024 5024 5024 5023 5022 5021 5019 5018 5018 5019 5019 5020 5021 5022 5023 5025 5027 5030 5034 5037 5040 5045 5049 5053 5057 5062 5066 5070 5076 5082 5087 5093 5099 5104 5110 5116 5122 5127 5133 5138 5143 5148 5153 5160 5165 5170 5174
5064 5062 5060 5054 5048 5045 5042 5040 5038 5035 5032 5030 5028 5026 5022 5020 5018 5018 5018 5017 5016 5014 5013 5013 5013 5013 5014 5015 5017 5018 5020 5022 5024 5027 5030 5034 5038 5042 5045 5049 5053 5058 5063 5067 5073 5078 5083 5089 5095 5100 5106 5112 5117 5122 5128 5133 5138 5143 5149 5154 5160 5164 5169
5056 5053 5051 5047 5041 5037 5035 5033 5030 5027 5025 5023 5022 5020 5017 5015 5014 5013 5013 5012 5011 5009 5009 5009 5010 5010 5012 5013 5014 5016 5017 5019 5021 5024 5027 5031 5035 5039 5042 5046 5051 5056 5060 5065 5070 5075 5080 5086 5091 5097 5103 5108 5113 5118 5123 5128 5134 5139 5144 5149 5154 5159 5164
5049 5046 5043 5039 5035 5031 5028 5026 5024 5021 5019 5017 5016 5014 5012 5011 5010 5010 5009 5008 5007 5007 5007 5007 5008 5009 5010 5011 5013 5014 5015 5017 5019 5022 5027 5031 5034 5037 5041 5045 5050 5054 5059 5064 5068 5073 5078 5083 5089 5094 5099 5104 5109 5114 5119 5125 5130 5134 5139 5144 5148 5153 5158
5043 5039 5036 5032 5029 5026 5022 5020 5018 5016 5014 5012 5012 5010 5009 5008 5008 5007 5007 5006 5006 5005 5006 5007 5007 5008 5009 5010 5011 5012 5014 5016 5019 5023 5027 5030 5033 5036 5040 5044 5049 5053 5058 5062 5067 5071 5076 5081 5086 5091 5096 5101 5105 5110 5115 5121 5125 5129 5134 5139 5143 5148 5152
5037 5033 5030 5026 5023 5020 5017 5015 5014 5012 5010 5009 5008 5008 5007 5006 5006 5005 5005 5005 5004 5004 5005 5006 5007 5008 5009 5010 5011 5012 5014 5017 5020 5023 5026 5029 5032 5036 5040 5044 5048 5052 5056 5060 5065 5069 5074 5079 5083 5088 5092 5097 5101 5105 5111 5116 5120 5124 5129 5133 5138 5142 5146
5032 5029 5025 5021 5018 5015 5012 5010 5009 5008 5007 5006 5006 5006 5005 5004 5004 5004 5004 5004 5004 5004 5005 5006 5007 5008 5009 5010 5011 5013 5015 5018 5020 5024 5027 5030 5032 5035 5039 5043 5046 5050 5055 5059 5063 5067 5072 5076 5080 5084 5089 5093 5097 5102 5107 5112 5116 5119 5123 5128 5133 5138 5142
5028 5024 5021 5017 5014 5011 5008 5007 5006 5005 5005 5005 5004 5004 5003 5003 5003 5002 5003 5003 5003 5004 5005 5006 5007 5008 5009 5010 5012 5013 5016 5018 5020 5023 5026 5029 5032 5035 5039 5042 5046 5049 5054 5058 5062 5066 5069 5073 5078 5082 5086 5090 5095 5100 5104 5108 5111 5115 5119 5124 5129 5134 5139
5025 5021 5017 5014 5011 5008 5006 5004 5004 5003 5003 5003 5003 5002 5002 5001 5001 5002 5002 5003 5003 5004 5004 5005 5006 5007 5009 5010 5012 5014 5016 5018 5021 5023 5026 5029 5032 5035 5039 5042 5045 5049 5053 5057 5060 5064 5068 5072 5076 5080 5084 5089 5093 5097 5100 5104 5108 5112 5117 5122 5127 5132 5137
5019 5016 5014 5010 5008 5006 5005 5003 5002 5002 5002 5001 5001 5001 5000 5000 5000 5000 5001 5002 5003 5004 5004 5005 5006 5007 5009 5010 5012 5014 5016 5018 5021 5024 5026 5029 5032 5035 5039 5042 5045 5048 5052 5055 5059 5063 5067 5071 5074 5078 5082 5086 5090 5094 5097 5101 5106 5110 5115 5120 5125 5130 5135
5013 5011 5009 5007 5004 5004 5003 5002 5001 5000 5000 5000 4999 4999 4999 5000 5000 5000 5000 5001 5002 5003 5004 5005 5006 5007 5009 5010 5012 5014 5016 5018 5020 5023 5026 5028 5031 5034 5037 5041 5043 5047 5050 5054 5058 5061 5065 5069 5073 5077 5081 5085 5088 5092 5096 5100 5104 5108 5113 5118 5123 5128 5134
5011 5008 5006 5004 5002 5001 5000 5000 4999 4999 4999 4998 4998 4998 4999 4999 4999 5000 5000 5001 5002 5003 5004 5005 5006 5008 5009 5010 5012 5014 5016 5018 5020 5022 5025 5028 5030 5033 5036 5039 5042 5046 5050 5053 5057 5060 5064 5068 5072 5076 5080 5083 5087 5090 5094 5099 5103 5107 5111 5116 5121 5126 5132
5009 5007 5004 5002 5001 5000 4998 4998 4997 4997 4998 4997 4997 4997 4998 4998 4999 4999 5000 5001 5001 5002 5004 5004 5006 5007 5009 5010 5012 5014 5016 5018 5020 5022 5025 5027 5030 5033 5036 5039 5042 5046 5050 5053 5056 5060 5063 5067 5071 5074 5078 5081 5085 5089 5093 5097 5101 5106 5110 5115 5119 5124 5130
5005 5005 5003 5001 5000 4999 4998 4997 4996 4997 4997 4997 4996 4997 4997 4998 4999 4999 5000 5001 5001 5002 5003 5004 5006 5007 5009 5011 5012 5014 5016 5018 5020 5022 5024 5027 5030 5033 5036 5039 5042 5046 5049 5053 5056 5059 5062 5066 5069 5072 5076 5079 5083 5087 5091 5096 5100 5104 5108 5113 5118 5123 5128
5001 5001 5001 5000 4998 4998 4997 4996 4996 4996 4997 4996 4996 4996 4996 4997 4998 4999 5000 5001 5002 5002 5003 5004 5006 5007 5009 5011 5013 5014 5016 5018 5020 5022 5024 5027 5030 5032 5035 5039 5042 5046 5049 5052 5056 5059 5062 5064 5068 5071 5074 5078 5082 5086 5090 5094 5098 5102 5106 5111 5116 5121 5125
5003 5000 4999 4998 4997 4996 4996 4996 4995 4996 4996 4996 4996 4996 4996 4996 4998 4999 5000 5001 5002 5002 5003 5004 5006 5007 5009 5011 5013 5015 5016 5018 5020 5022 5024 5027 5029 5032 5035 5039 5042 5045 5049 5052 5055 5058 5061 5063 5066 5070 5073 5077 5081 5085 5089 5093 5096 5100 5105 5110 5114 5119 5123
5003 5000 4999 4998 4996 4996 4995 4995 4995 4995 4995 4996 4996 4996 4996 4996 4997 4999 5000 5000 5001 5002 5003 5004 5006 5007 5009 5011 5013 5014 5016 5018 5020 5022 5025 5027 5030 5032 5036 5039 5042 5045 5048 5051 5054 5057 5060 5062 5065 5069 5072 5076 5079 5083 5087 5091 5095 5099 5103 5108 5112 5116 5121